DESCENT (46927 NORAD) Tracking and Keplerian Element Data

This shows tracking and keplerian element data for the satellite.

Feedback or suggestion? Click here.




ElementValue
Catalog46927
NameDESCENT
Epoch Orbit1187
Epoch Day20.91025269
Epoch Year2021
RAAN350.2914
Inclination51.6438
Eccentricity0.0001269
Argument of Perigee306.0581
Mean Anonmoly54.0291
Mean Motion15.51425886
Decay Rate7.56E-05
L11 46927U 98067RX 21020.91025269 .00007560 00000-0 13350-3 0 9990
L22 46927 51.6438 350.2914 0001269 306.0581 54.0291 15.51425886 11875

Live tracking and technical data element details for DESCENT (NORAD 46927). DESCENT can be tracked NOW for your location showing map with azimuth and elevation plus other details from your city location.

Track the satellite on the map from your city or location and see movement details for azimuth, elevation, latitude, longitude, range, height, and movement on the map or in text.







IsCatalogInMostPopularTable: catalog: 46927, numindb: 24
Update: records affected: 1



GetName: 46927 DESCENT

Hit Count: updated at: Fri, 22 Jan 2021 16:48:30 GMT